星链-35069(STARLINK-35069)

导读

STARLINK-35069是美国于2025年10月31日发射的Starlink星链卫星,星链是美国太空探索技术公司(SpaceX)打造的低轨卫星互联网星座,旨在为全球提供高速宽带互联网服务。该卫星入轨后将参与组网,补充星链星座的覆盖能力,进一步推动全球卫星互联网的部署进程。

基本信息
目录编号:
66268
目录名称:
STARLINK-35069
国际标识:
2025-247D
轨道中心:
EARTH
卫星名称:
星链-35069
卫星全名:
星链-35069(STARLINK-35069)
卫星状态:
在轨 (已飞行309 天)
发射日期:
2025-10-31 UTC
国别 :
美国 (US)
星等 :
--
轨道信息
数据来源 国际轨道数据
星历时间: 2026-09-05T12:32:27+0800
15小时前
查看轨道信息
半长轴: 6840.819km
偏心率: 0.0001798
轨道倾角: 53.160°
近地点辐角 42.061°
升交点赤经 75.009°
平近点角 318.053°
近地点: 461.452km
远地点: 463.912km
周期: 93.847分钟
每日圈数: 15.344072
详细信息
固有亮度:
5
最大亮度:
2.5
卫星平台:
Starlink V1.0
覆盖范围:
全球
运营商:
太空探索技术公司
运营商所在国:
美国
制造商(研发单位):
太空探索技术公司
制造商所在国:
美国
使用方式:
暂无
卫星简介
Starlink 计划是 SpaceX 推出的全球卫星互联网项目,通过发射低轨道卫星,为全球尤其是偏远地区提供高速、低延迟的互联网服务。自 2019 年起,Starlink 已部署数千颗卫星,旨在缩小全球数字鸿沟,推动互联网普及。该项目还为军事、航空等行业提供通信支持,带来广泛经济效益。
2D轨道图
3D轨道图
轨道高度分析图
轨道倾角分析图
轨道综合分析图
查看轨道综合分析图
交会数据列表
事件ID 空间交会对象 最接近时刻(TCA) 交会距离 交会风险概率(CRP) 交会风险指数(CRI) 操作
CDM_260907-174004-765506-626821
2026-09-07T
17:40:52+0000
1.819 km
极远距离
3.033785E-6 低风险 0.45